Weather History for Eureka, NU

Change the Weather History Date:

Monday, February 17, 2014

  Actual Average Record
Temperature  
Mean Temperature -40 °F -  
Max Temperature -34 °F -30 °F -9 °F (2011)
Min Temperature -46 °F -43 °F -58 °F (2009)
Degree Days  
Heating Degree Days 105    
Moisture  
Dew Point -43 °F    
Average Humidity 69    
Maximum Humidity 75    
Minimum Humidity 51    
Precipitation  
Precipitation 0.01 in 0.00 in - ()
Sea Level Pressure  
Sea Level Pressure 29.99 in    
Wind  
Wind Speed 0 mph ()    
Max Wind Speed 2 mph    
Max Gust Speed -    
Visibility 15.0 miles    
Events Snow    
Averages and records for this station are not official NWS values.
T = Trace of Precipitation, MM = Missing Value Source: Averaged Metar Reports

Daily Weather History Graph

Daily Weather History Graph

Search for Another Location

Airport:

Trip Planner

Search our weather history database for the weather conditions in past years. The results will help you decide how hot, cold, wet, or windy it might be!

Date:

Astronomy

Dec. 31, 1969 Rise Set
Actual Time Sun does not rise 12:30 PM CST
Civil Twilight 8:18 AM CST 3:39 PM CST
Nautical Twilight 5:51 AM CST 6:08 PM CST
Astronomical Twilight 3:25 AM CST 8:37 PM CST
Moon 9:40 PM CST (2/17) 7:02 AM CST (2/17)
Length of Visible Light 7h 21m
Length of Day
0h 00m
Waning Gibbous, 93% of the Moon is Illuminated
Feb 17
Waning Gibbous
Feb 22
Last Quarter
Mar 1
New
Mar 8
First Quarter
Mar 16
Full

Hourly Weather History & Observations

Time (CST) Temp. Dew Point Humidity Pressure Visibility Wind Dir Wind Speed Gust Speed Precip Events Conditions
12:00 AM -40 °F -45 °F 62% 29.98 in 15 mi Calm Calm - -   Clear
12:00 AM -40.0 °F -45.4 °F 74% 29.98 in 15.0 mi SSE 2.3 mph - N/A   Partly Cloudy
1:00 AM -38.2 °F -43.6 °F 74% 29.99 in 15.0 mi Calm Calm - N/A   Partly Cloudy
2:00 AM -40.0 °F -45.4 °F 74% 30.00 in 15.0 mi Calm Calm - N/A   Partly Cloudy
3:00 AM -40.0 °F -45.4 °F 74% 30.01 in 15.0 mi Calm Calm - N/A   Partly Cloudy
3:37 AM - - N/A% - 15.0 mi Calm Calm - N/A   Unknown
4:00 AM -40.0 °F -45.4 °F 74% 30.02 in 15.0 mi Calm Calm - N/A Snow Light Snow
5:00 AM -38.2 °F -43.6 °F 74% 30.02 in 15.0 mi Calm Calm - N/A Snow Light Snow
6:00 AM -36 °F -43 °F 51% 30.02 in 15 mi Calm Calm - - Snow Light Snow
6:00 AM -36.4 °F -43.6 °F 67% 30.02 in 15.0 mi Calm Calm - N/A Snow Light Snow
7:00 AM -36.4 °F -43.6 °F 67% 30.03 in 15.0 mi Calm Calm - N/A Snow Light Snow
8:00 AM -36.4 °F -41.8 °F 75% 30.02 in 15.0 mi Calm Calm - N/A Snow Light Snow
9:00 AM -34.6 °F -41.8 °F 68% 30.02 in 15.0 mi Calm Calm - N/A   Partly Cloudy
10:00 AM -38.2 °F -43.6 °F 74% 30.01 in 15.0 mi Calm Calm - N/A   Partly Cloudy
11:00 AM -38.2 °F -45.4 °F 67% 30.00 in 15.0 mi ENE 2.3 mph - N/A   Scattered Clouds
12:00 PM -36 °F -43 °F 51% 30.00 in 15 mi Calm Calm - -   Partly Cloudy
12:00 PM -36.4 °F -43.6 °F 67% 30.00 in 15.0 mi Calm Calm - N/A   Scattered Clouds
1:00 PM -34.6 °F -41.8 °F 68% 29.99 in 15.0 mi East 2.3 mph - N/A   Mostly Cloudy
2:00 PM -36.4 °F -41.8 °F 75% 29.98 in 15.0 mi Calm Calm - N/A   Mostly Cloudy
3:00 PM -36.4 °F -41.8 °F 75% 29.98 in 15.0 mi Calm Calm - N/A   Mostly Cloudy
4:00 PM -36.4 °F -41.8 °F 75% 29.98 in 15.0 mi Calm Calm - N/A   Mostly Cloudy
5:00 PM -34.6 °F -41.8 °F 68% 29.97 in 15.0 mi Calm Calm - N/A   Partly Cloudy
6:00 PM -36 °F -43 °F 53% 29.97 in 15 mi Calm Calm - -   Scattered Clouds
6:00 PM -36.4 °F -41.8 °F 75% 29.97 in 15.0 mi Calm Calm - N/A   Partly Cloudy
7:00 PM -36.4 °F -43.6 °F 67% 29.96 in 15.0 mi Calm Calm - N/A   Partly Cloudy
8:00 PM -36.4 °F -41.8 °F 75% 29.94 in 15.0 mi Calm Calm - N/A Snow Light Snow
9:00 PM -34.6 °F -41.8 °F 68% 29.94 in 15.0 mi South 2.3 mph - N/A Snow Light Snow